Weather History for Granite Falls, MN

Change the Weather History Date:

Friday, October 12, 2012

  Actual Average (KMVE) Record (KMVE)
Temperature  
Mean Temperature 34 °F -  
Max Temperature 54 °F 61 °F 84 °F (1975)
Min Temperature 14 °F 36 °F 19 °F (2012)
Degree Days  
Heating Degree Days 31    
Moisture  
Dew Point 15 °F    
Average Humidity 49    
Maximum Humidity 84    
Minimum Humidity 19    
Precipitation  
Precipitation 0.00 in - - ()
Sea Level Pressure  
Sea Level Pressure 30.27 in    
Wind  
Wind Speed 7 mph (SE)    
Max Wind Speed 24 mph    
Max Gust Speed 29 mph    
Visibility 10 miles    
Events      
Averages and records for this station are not official NWS values.
T = Trace of Precipitation, MM = Missing Value Source: NWS Daily Summary

Daily Weather History Graph

Daily Weather History Graph

Search for Another Location

Airport:

Trip Planner

Search our weather history database for the weather conditions in past years. The results will help you decide how hot, cold, wet, or windy it might be!

Date:

Astronomy

Oct. 12, 2012 Rise Set
Actual Time 7:34 AM CDT 6:41 PM CDT
Civil Twilight 7:05 AM CDT 7:11 PM CDT
Nautical Twilight 6:31 AM CDT 7:45 PM CDT
Astronomical Twilight 5:57 AM CDT 8:18 PM CDT
Moon 4:11 AM CDT (10/12) 4:57 PM CDT (10/12)
Length of Visible Light 12h 06m
Length of Day
11h 07m
Waning Crescent, 10% of the Moon is Illuminated
Oct 12
Waning Crescent
Oct 15
New
Oct 21
First Quarter
Oct 29
Full
Nov 6
Last Quarter

Hourly Weather History & Observations

Time (CDT) Temp. Windchill Dew Point Humidity Pressure Visibility Wind Dir Wind Speed Gust Speed Precip Events Conditions
12:32 AM 19.2 °F 12.5 °F 12.9 °F 76% 30.43 in 10.0 mi West 4.6 mph - N/A   Clear
12:52 AM 20.8 °F - 14.4 °F 76% 30.43 in 10.0 mi Calm Calm - N/A   Clear
1:12 AM 20.1 °F - 13.8 °F 77% 30.43 in 10.0 mi Calm Calm - N/A   Clear
1:32 AM 21.2 °F - 14.4 °F 75% 30.44 in 10.0 mi Calm Calm - N/A   Clear
1:52 AM 18.3 °F - 11.7 °F 75% 30.44 in 10.0 mi Calm Calm - N/A   Clear
2:12 AM 18.3 °F - 12.6 °F 78% 30.44 in 7.0 mi Calm Calm - N/A   Clear
2:32 AM 18.1 °F - 12.2 °F 78% 30.43 in 10.0 mi Calm Calm - N/A   Clear
2:52 AM 17.8 °F - 11.8 °F 78% 30.44 in 10.0 mi Calm Calm - N/A   Clear
3:12 AM 15.3 °F - 10.4 °F 81% 30.44 in 10.0 mi Calm Calm - N/A   Clear
3:52 AM 17.4 °F - 12.4 °F 81% 30.44 in 10.0 mi Calm Calm - N/A   Clear
4:12 AM 18.9 °F - 13.3 °F 79% 30.44 in 10.0 mi Calm Calm - N/A   Clear
4:32 AM 19.4 °F - 13.3 °F 77% 30.43 in 10.0 mi Calm Calm - N/A   Clear
5:13 AM 20.3 °F - 14.5 °F 78% 30.43 in 10.0 mi Calm Calm - N/A   Clear
5:32 AM 18.9 °F - 13.8 °F 81% 30.43 in 10.0 mi Calm Calm - N/A   Clear
5:52 AM 18.0 °F - 12.4 °F 79% 30.42 in 10.0 mi Calm Calm - N/A   Clear
6:12 AM 14.5 °F - 9.5 °F 80% 30.43 in 10.0 mi Calm Calm - N/A   Clear
6:32 AM 16.5 °F - 11.5 °F 81% 30.41 in 10.0 mi Calm Calm - N/A   Clear
6:52 AM 16.7 °F - 11.7 °F 81% 30.42 in 10.0 mi Calm Calm - N/A   Clear
7:12 AM 18.1 °F - 13.8 °F 83% 30.42 in 10.0 mi Calm Calm - N/A   Clear
7:32 AM 17.4 °F 12.1 °F 12.9 °F 83% 30.41 in 7.0 mi South 3.5 mph - N/A   Clear
7:52 AM 14.9 °F 7.5 °F 10.8 °F 84% 30.41 in 7.0 mi South 4.6 mph - N/A   Clear
8:12 AM 18.3 °F 11.5 °F 13.3 °F 81% 30.41 in 7.0 mi SSE 4.6 mph - N/A   Clear
8:32 AM 21.6 °F 16.8 °F 16.7 °F 82% 30.41 in 7.0 mi ESE 3.5 mph - N/A   Clear
9:12 AM 28.6 °F 21.5 °F 20.7 °F 72% 30.38 in 7.0 mi ESE 6.9 mph - N/A   Clear
9:32 AM 32.2 °F 24.4 °F 22.1 °F 66% 30.38 in 7.0 mi SE 9.2 mph - N/A   Clear
9:52 AM 35.1 °F 26.9 °F 21.7 °F 58% 30.39 in 7.0 mi SE 11.5 mph - N/A   Clear
10:12 AM 37.8 °F 29.8 °F 21.4 °F 52% 30.38 in 10.0 mi SE 12.7 mph - N/A   Clear
10:32 AM 39.2 °F 29.8 °F 20.5 °F 47% 30.37 in 10.0 mi SE 18.4 mph - N/A   Clear
10:52 AM 41.5 °F 34.6 °F 21.0 °F 44% 30.37 in 10.0 mi SE 12.7 mph 20.7 mph N/A   Clear
11:12 AM 43.9 °F 36.5 °F 21.0 °F 40% 30.36 in 10.0 mi SE 16.1 mph 19.6 mph N/A   Clear
11:32 AM 45.0 °F 37.9 °F 21.2 °F 39% 30.36 in 10.0 mi SE 16.1 mph 21.9 mph N/A   Clear
12:12 PM 47.3 °F - 19.8 °F 34% 30.33 in 10.0 mi SE 16.1 mph 20.7 mph N/A   Clear
12:31 PM 49.1 °F - 18.1 °F 29% 30.32 in 10.0 mi SSE 18.4 mph 25.3 mph N/A   Clear
12:52 PM 49.6 °F - 16.9 °F 27% 30.31 in 10.0 mi SSE 19.6 mph 26.5 mph N/A   Clear
1:32 PM 52.0 °F - 16.2 °F 24% 30.27 in 10.0 mi SSE 17.3 mph 23.0 mph N/A   Clear
2:52 PM 54.0 °F - 14.2 °F 21% 30.22 in 10.0 mi SSE 19.6 mph 26.5 mph N/A   Clear
3:32 PM 54.1 °F - 12.9 °F 19% 30.19 in 10.0 mi SSE 24.2 mph 28.8 mph N/A   Clear
3:52 PM 54.7 °F - 13.3 °F 19% 30.18 in 10.0 mi SE 21.9 mph 26.5 mph N/A   Clear
4:12 PM 54.5 °F - 13.3 °F 20% 30.17 in 10.0 mi SSE 18.4 mph 24.2 mph N/A   Clear
4:32 PM 54.7 °F - 14.0 °F 20% 30.15 in 10.0 mi SSE 18.4 mph 24.2 mph N/A   Clear
4:53 PM 54.5 °F - 13.6 °F 20% 30.14 in 10.0 mi SSE 20.7 mph 26.5 mph N/A   Clear
5:12 PM 54.1 °F - 13.6 °F 20% 30.13 in 10.0 mi SE 18.4 mph 28.8 mph N/A   Clear
5:32 PM 53.2 °F - 14.2 °F 21% 30.11 in 10.0 mi SE 17.3 mph - N/A   Mostly Cloudy
5:52 PM 53.2 °F - 14.4 °F 21% 30.09 in 10.0 mi SE 17.3 mph 25.3 mph N/A   Overcast
6:12 PM 53.2 °F - 14.7 °F 22% 30.08 in 10.0 mi SSE 20.7 mph 24.2 mph N/A   Overcast
6:32 PM 52.9 °F - 15.1 °F 22% 30.07 in 10.0 mi SE 13.8 mph 21.9 mph N/A   Overcast
6:52 PM 52.3 °F - 14.9 °F 23% 30.08 in 10.0 mi SE 13.8 mph - N/A   Overcast
7:12 PM 52.3 °F - 14.7 °F 22% 30.06 in 10.0 mi SE 12.7 mph - N/A   Overcast
7:52 PM 52.3 °F - 14.7 °F 22% 30.03 in 10.0 mi SE 15.0 mph 18.4 mph N/A   Overcast
8:12 PM 52.3 °F - 14.7 °F 22% 30.02 in 10.0 mi SE 13.8 mph 20.7 mph N/A   Overcast
8:32 PM 52.3 °F - 15.3 °F 23% 30.02 in 10.0 mi SE 16.1 mph 23.0 mph N/A   Overcast
8:52 PM 52.3 °F - 15.6 °F 23% 30.01 in 10.0 mi SE 16.1 mph 20.7 mph N/A   Overcast
9:12 PM 52.2 °F - 15.8 °F 24% 30.00 in 10.0 mi SE 16.1 mph - N/A   Overcast
9:32 PM 52.3 °F - 15.8 °F 24% 29.99 in 10.0 mi SE 17.3 mph - N/A   Overcast
10:12 PM 52.3 °F - 15.8 °F 24% 29.97 in 10.0 mi SE 18.4 mph 25.3 mph N/A   Overcast
10:52 PM 52.3 °F - 16.7 °F 24% 29.95 in 10.0 mi SE 19.6 mph 24.2 mph N/A   Overcast
11:12 PM 52.3 °F - 17.6 °F 25% 29.95 in 10.0 mi SE 18.4 mph 23.0 mph N/A   Overcast
11:32 PM 52.3 °F - 18.5 °F 26% 29.94 in 10.0 mi SE 16.1 mph 24.2 mph N/A   Overcast